Miami, FL

7:41 PM EDT on August 28, 2016 (GMT -0400)
Miami International

Weather History for KMIA - January, 2012

Change the Weather History Date:

Wednesday, January 4, 2012

  Actual Average Record
Temperature  
Mean Temperature 55 °F 68 °F  
Max Temperature 67 °F 76 °F 87 °F (1942)
Min Temperature 43 °F 60 °F 32 °F (1918)
Degree Days  
Heating Degree Days 10 2  
Month to date heating degree days 24 8  
Since 1 July heating degree days 24 45  
Cooling Degree Days 0 5  
Month to date cooling degree days 8 20  
Year to date cooling degree days 8 20  
Growing Degree Days 4 (Base 50)    
Moisture  
Dew Point 34 °F    
Average Humidity 46    
Maximum Humidity 56    
Minimum Humidity 36    
Precipitation  
Precipitation 0.00 in 0.06 in 0.65 in (1969)
Month to date precipitation T 0.21  
Year to date precipitation T 0.21  
Snow  
Snow 0.00 in - - ()
Month to date snowfall 0.0  
Since 1 July snowfall 0.0  
Snow Depth 0.00 in    
Sea Level Pressure  
Sea Level Pressure 30.33 in    
Wind  
Wind Speed 7 mph (NNW)    
Max Wind Speed 14 mph    
Max Gust Speed 17 mph    
Visibility 10 miles    
Events      
T = Trace of Precipitation, MM = Missing Value Source: NWS Daily Summary

Daily Weather History Graph

Daily Weather History Graph

Search for Another Location

Airport or City:

Trip Planner

Search our weather history database for the weather conditions in past years. The results will help you decide how hot, cold, wet, or windy it might be!

Date:

Astronomy

Jan. 04, 2012 Rise Set
Actual Time 7:08 AM EST 5:43 PM EST
Civil Twilight 6:43 AM EST 6:08 PM EST
Nautical Twilight 6:15 AM EST 6:37 PM EST
Astronomical Twilight 5:46 AM EST 7:05 PM EST
Moon 2:02 PM EST (1/4) 3:00 AM EST (1/4)
Length of Visible Light 11h 25m
Length of Day
10h 34m
Waxing Gibbous, 80% of the Moon is Illuminated
Jan 4
Waxing Gibbous
Jan 9
Full
Jan 16
Last Quarter
Jan 23
New
Jan 30
First Quarter

Hourly Weather History & Observations

Time (EST) Temp. Windchill Dew Point Humidity Pressure Visibility Wind Dir Wind Speed Gust Speed Precip Events Conditions
12:53 AM 45.0 °F 41.2 °F 21.0 °F 39% 30.36 in 10.0 mi NNW 6.9 mph - N/A   Clear
1:53 AM 44.1 °F 39.0 °F 19.9 °F 38% 30.35 in 10.0 mi NNW 9.2 mph - N/A   Clear
2:53 AM 44.6 °F 40.2 °F 19.4 °F 37% 30.34 in 10.0 mi NNW 8.1 mph - N/A   Clear
3:53 AM 44.1 °F 40.8 °F 21.0 °F 40% 30.33 in 10.0 mi NNW 5.8 mph - N/A   Clear
4:53 AM 44.1 °F 40.8 °F 24.1 °F 45% 30.34 in 10.0 mi NNW 5.8 mph - N/A   Clear
5:53 AM 42.8 °F 39.3 °F 26.6 °F 53% 30.35 in 10.0 mi NNW 5.8 mph - N/A   Clear
6:53 AM 42.8 °F 38.6 °F 26.6 °F 53% 30.36 in 10.0 mi NNW 6.9 mph - N/A   Partly Cloudy
7:53 AM 44.1 °F 39.5 °F 28.9 °F 55% 30.38 in 10.0 mi NNW 8.1 mph - N/A   Partly Cloudy
8:53 AM 48.0 °F - 30.9 °F 52% 30.40 in 10.0 mi NNW 9.2 mph - N/A   Scattered Clouds
9:53 AM 53.1 °F - 34.0 °F 48% 30.40 in 10.0 mi Variable 6.9 mph - N/A   Partly Cloudy
10:53 AM 57.2 °F - 37.4 °F 48% 30.39 in 10.0 mi Variable 5.8 mph - N/A   Partly Cloudy
11:53 AM 60.1 °F - 39.9 °F 47% 30.36 in 10.0 mi NW 6.9 mph - N/A   Partly Cloudy
12:53 PM 63.0 °F - 43.0 °F 48% 30.32 in 10.0 mi Variable 5.8 mph - N/A   Partly Cloudy
1:53 PM 66.0 °F - 45.0 °F 47% 30.29 in 10.0 mi Variable 5.8 mph - N/A   Partly Cloudy
2:53 PM 66.2 °F - 44.6 °F 46% 30.27 in 10.0 mi NNW 11.5 mph - N/A   Partly Cloudy
3:53 PM 66.2 °F - 46.4 °F 49% 30.27 in 10.0 mi Variable 5.8 mph - N/A   Partly Cloudy
4:53 PM 66.0 °F - 46.9 °F 50% 30.28 in 10.0 mi North 8.1 mph - N/A   Scattered Clouds
5:53 PM 63.0 °F - 46.0 °F 54% 30.28 in 10.0 mi NNW 5.8 mph - N/A   Scattered Clouds
6:53 PM 62.1 °F - 45.0 °F 53% 30.30 in 10.0 mi Variable 4.6 mph - N/A   Mostly Cloudy
7:53 PM 61.0 °F - 44.1 °F 54% 30.31 in 10.0 mi NNW 6.9 mph - N/A   Overcast
8:53 PM 60.1 °F - 39.0 °F 46% 30.33 in 10.0 mi North 8.1 mph - N/A   Overcast
9:53 PM 59.0 °F - 32.0 °F 36% 30.32 in 10.0 mi Variable 5.8 mph - N/A   Mostly Cloudy
10:53 PM 57.9 °F - 32.0 °F 37% 30.31 in 10.0 mi NNW 5.8 mph - N/A   Partly Cloudy
11:53 PM 55.9 °F - 30.9 °F 39% 30.30 in 10.0 mi North 4.6 mph - N/A   Partly Cloudy